SWA11T PHNL-PHOG

Flight info

Callsign SWA11T
Flight time 0h 25m
Altitude 13000
Route PALAY3 LNY CAMPS4
Aircraft A20N/M-SDE2E3FGHIRWXY/LB1

Departure

Time 2026-04-23 23:17
Airport Daniel K. Inouye International Airport (PHNL)

Arrival

Time 2026-04-23 23:43
Airport Kahului International Airport (PHOG)
Time Latitude Longitude Altitude Speed Heading
2026-04-23 22:57 21.31314 -157.92373 10 ft 0 kts 144°
2026-04-23 23:08 21.31307 -157.92367 11 ft 3 kts 139°
2026-04-23 23:08 21.31295 -157.92328 9 ft 7 kts 81°
2026-04-23 23:09 21.31334 -157.92293 9 ft 11 kts 41°
2026-04-23 23:09 21.31395 -157.92220 10 ft 14 kts 34°
2026-04-23 23:09 21.31442 -157.92234 9 ft 11 kts 332°
2026-04-23 23:09 21.31526 -157.92227 8 ft 15 kts 35°
2026-04-23 23:10 21.31574 -157.92172 9 ft 0 kts 52°
2026-04-23 23:10 21.31575 -157.92171 8 ft 2 kts 52°
2026-04-23 23:10 21.31627 -157.92092 10 ft 13 kts 54°
2026-04-23 23:10 21.31690 -157.92003 11 ft 18 kts 53°
2026-04-23 23:11 21.31775 -157.91881 13 ft 23 kts 53°
2026-04-23 23:11 21.31901 -157.91854 11 ft 18 kts 334°
2026-04-23 23:11 21.32000 -157.91912 13 ft 18 kts 330°
2026-04-23 23:11 21.32119 -157.91984 15 ft 22 kts 330°
2026-04-23 23:12 21.32268 -157.92075 17 ft 27 kts 330°
2026-04-23 23:12 21.32386 -157.92216 18 ft 24 kts 273°
2026-04-23 23:12 21.32388 -157.92374 15 ft 18 kts 270°
2026-04-23 23:12 21.32388 -157.92512 15 ft 21 kts 270°
2026-04-23 23:13 21.32353 -157.92681 15 ft 26 kts 238°
2026-04-23 23:13 21.32304 -157.92883 9 ft 29 kts 271°
2026-04-23 23:13 21.32306 -157.93074 9 ft 21 kts 270°
2026-04-23 23:13 21.32305 -157.93211 9 ft 19 kts 269°
2026-04-23 23:14 21.32304 -157.93375 7 ft 25 kts 270°
2026-04-23 23:14 21.32305 -157.93580 12 ft 29 kts 270°
2026-04-23 23:14 21.32305 -157.93802 15 ft 31 kts 268°
2026-04-23 23:14 21.32304 -157.94049 18 ft 34 kts 270°
2026-04-23 23:15 21.32344 -157.94148 19 ft 10 kts 311°
2026-04-23 23:15 21.32406 -157.94214 18 ft 7 kts 315°
2026-04-23 23:15 21.32432 -157.94239 17 ft 5 kts 327°
2026-04-23 23:15 21.32504 -157.94231 15 ft 17 kts 34°
2026-04-23 23:16 21.32530 -157.94129 15 ft 0 kts 88°
2026-04-23 23:16 21.32531 -157.94114 15 ft 16 kts 89°
2026-04-23 23:17 21.32530 -157.93531 11 ft 135 kts 90°
2026-04-23 23:17 21.32534 -157.92314 660 ft 171 kts 90°
2026-04-23 23:17 21.32199 -157.91066 1881 ft 183 kts 126°
2026-04-23 23:17 21.31144 -157.90217 2927 ft 202 kts 160°
2026-04-23 23:18 21.29695 -157.89733 3669 ft 243 kts 164°
2026-04-23 23:18 21.27986 -157.89200 3805 ft 261 kts 164°
2026-04-23 23:18 21.26226 -157.88652 3918 ft 265 kts 164°
2026-04-23 23:18 21.24455 -157.88102 4030 ft 265 kts 164°
2026-04-23 23:19 21.22746 -157.87366 4135 ft 266 kts 146°
2026-04-23 23:19 21.21506 -157.85889 4486 ft 271 kts 120°
2026-04-23 23:19 21.20582 -157.84116 5638 ft 272 kts 119°
2026-04-23 23:19 21.19667 -157.82355 7203 ft 272 kts 119°
2026-04-23 23:20 21.18732 -157.80559 8543 ft 279 kts 119°
2026-04-23 23:20 21.17813 -157.78701 9872 ft 285 kts 114°
2026-04-23 23:20 21.17076 -157.76670 10899 ft 304 kts 109°
2026-04-23 23:20 21.16375 -157.74426 11603 ft 330 kts 108°
2026-04-23 23:21 21.15630 -157.72025 12187 ft 347 kts 109°
2026-04-23 23:21 21.14842 -157.69580 12300 ft 347 kts 109°
2026-04-23 23:21 21.14039 -157.67172 12398 ft 348 kts 110°
2026-04-23 23:21 21.13212 -157.64735 12517 ft 348 kts 110°
2026-04-23 23:22 21.12376 -157.62293 12627 ft 349 kts 110°
2026-04-23 23:22 21.11540 -157.59855 12736 ft 350 kts 110°
2026-04-23 23:22 21.10665 -157.57422 12844 ft 350 kts 114°
2026-04-23 23:22 21.09513 -157.55122 12870 ft 350 kts 122°
2026-04-23 23:23 21.08243 -157.52900 12869 ft 350 kts 121°
2026-04-23 23:23 21.06976 -157.50670 12869 ft 350 kts 121°
2026-04-23 23:23 21.05716 -157.48442 12869 ft 350 kts 121°
2026-04-23 23:23 21.04456 -157.46212 12869 ft 350 kts 121°
2026-04-23 23:24 21.03212 -157.44011 12868 ft 336 kts 121°
2026-04-23 23:24 21.02037 -157.41933 12868 ft 316 kts 121°
2026-04-23 23:24 21.00937 -157.39987 12867 ft 296 kts 121°
2026-04-23 23:24 20.99904 -157.38162 12867 ft 278 kts 121°
2026-04-23 23:25 20.99016 -157.36401 12867 ft 261 kts 115°
2026-04-23 23:25 20.98306 -157.34682 12867 ft 244 kts 113°
2026-04-23 23:25 20.97667 -157.33058 12866 ft 229 kts 113°
2026-04-23 23:25 20.97060 -157.31540 12866 ft 215 kts 114°
2026-04-23 23:26 20.96448 -157.30049 12870 ft 220 kts 114°
2026-04-23 23:26 20.95825 -157.28564 12869 ft 218 kts 114°
2026-04-23 23:26 20.95197 -157.27084 12869 ft 218 kts 115°
2026-04-23 23:26 20.94568 -157.25607 12869 ft 218 kts 115°
2026-04-23 23:27 20.93935 -157.24126 12869 ft 218 kts 115°
2026-04-23 23:27 20.93303 -157.22646 12869 ft 218 kts 115°
2026-04-23 23:27 20.92673 -157.21169 12869 ft 218 kts 115°
2026-04-23 23:27 20.92041 -157.19691 12869 ft 218 kts 115°
2026-04-23 23:28 20.91410 -157.18213 12869 ft 218 kts 115°
2026-04-23 23:28 20.90780 -157.16738 12869 ft 218 kts 115°
2026-04-23 23:28 20.90149 -157.15261 12869 ft 218 kts 115°
2026-04-23 23:28 20.89525 -157.13800 12869 ft 218 kts 115°
2026-04-23 23:29 20.88895 -157.12325 12869 ft 218 kts 115°
2026-04-23 23:29 20.88263 -157.10848 12869 ft 218 kts 115°
2026-04-23 23:29 20.87636 -157.09382 12770 ft 216 kts 115°
2026-04-23 23:29 20.87009 -157.07917 12464 ft 219 kts 115°
2026-04-23 23:30 20.86364 -157.06408 12012 ft 227 kts 115°
2026-04-23 23:30 20.85692 -157.04840 11521 ft 236 kts 115°
2026-04-23 23:30 20.85002 -157.03229 11158 ft 238 kts 115°
2026-04-23 23:30 20.84315 -157.01624 10868 ft 237 kts 115°
2026-04-23 23:31 20.83631 -157.00027 10567 ft 236 kts 115°
2026-04-23 23:31 20.82951 -156.98440 10285 ft 235 kts 115°
2026-04-23 23:31 20.82269 -156.96851 10011 ft 235 kts 115°
2026-04-23 23:31 20.81591 -156.95270 9713 ft 234 kts 115°
2026-04-23 23:32 20.80914 -156.93691 9423 ft 233 kts 115°
2026-04-23 23:32 20.80238 -156.92117 9151 ft 232 kts 115°
2026-04-23 23:32 20.79567 -156.90553 8887 ft 231 kts 115°
2026-04-23 23:32 20.78900 -156.88998 8621 ft 230 kts 115°
2026-04-23 23:33 20.78233 -156.87447 8350 ft 229 kts 115°
2026-04-23 23:33 20.77577 -156.85920 8069 ft 229 kts 115°
2026-04-23 23:33 20.76917 -156.84383 7815 ft 227 kts 115°
2026-04-23 23:33 20.76261 -156.82856 7586 ft 225 kts 115°
2026-04-23 23:34 20.75608 -156.81340 7320 ft 224 kts 115°
2026-04-23 23:34 20.74956 -156.79824 7053 ft 224 kts 115°
2026-04-23 23:34 20.74308 -156.78317 6799 ft 223 kts 115°
2026-04-23 23:34 20.73662 -156.76817 6544 ft 222 kts 115°
2026-04-23 23:35 20.73017 -156.75319 6291 ft 221 kts 115°
2026-04-23 23:35 20.72375 -156.73829 6041 ft 220 kts 115°
2026-04-23 23:35 20.71736 -156.72343 5796 ft 220 kts 115°
2026-04-23 23:35 20.71098 -156.70864 5550 ft 219 kts 115°
2026-04-23 23:36 20.70463 -156.69391 5303 ft 218 kts 115°
2026-04-23 23:36 20.69830 -156.67921 5052 ft 217 kts 115°
2026-04-23 23:36 20.69195 -156.66449 4752 ft 220 kts 115°
2026-04-23 23:36 20.68544 -156.64942 4362 ft 225 kts 115°
2026-04-23 23:37 20.67889 -156.63423 4104 ft 225 kts 115°
2026-04-23 23:37 20.67263 -156.61903 3931 ft 220 kts 107°
2026-04-23 23:37 20.67242 -156.60261 3875 ft 225 kts 73°
2026-04-23 23:37 20.68058 -156.58878 3869 ft 219 kts 40°
2026-04-23 23:38 20.69237 -156.57959 3886 ft 200 kts 32°
2026-04-23 23:38 20.70361 -156.57221 3871 ft 194 kts 32°
2026-04-23 23:38 20.71475 -156.56423 3870 ft 191 kts 34°
2026-04-23 23:38 20.72568 -156.55611 3868 ft 192 kts 34°
2026-04-23 23:39 20.73668 -156.54801 3868 ft 192 kts 33°
2026-04-23 23:39 20.74773 -156.54003 3870 ft 192 kts 33°
2026-04-23 23:39 20.75883 -156.53212 3868 ft 192 kts 33°
2026-04-23 23:39 20.76997 -156.52438 3871 ft 188 kts 31°
2026-04-23 23:40 20.78087 -156.51704 3868 ft 185 kts 32°
2026-04-23 23:40 20.79149 -156.50937 3869 ft 184 kts 34°
2026-04-23 23:40 20.80201 -156.50151 3867 ft 184 kts 34°
2026-04-23 23:40 20.81253 -156.49367 3867 ft 184 kts 34°
2026-04-23 23:41 20.82307 -156.48580 3865 ft 184 kts 34°
2026-04-23 23:41 20.83355 -156.47796 3865 ft 184 kts 34°
2026-04-23 23:41 20.84408 -156.47012 3719 ft 186 kts 34°
2026-04-23 23:41 20.85543 -156.46224 2390 ft 200 kts 32°
2026-04-23 23:42 20.86702 -156.45355 1010 ft 206 kts 36°
2026-04-23 23:42 20.87765 -156.44515 532 ft 176 kts 36°
2026-04-23 23:42 20.88702 -156.43803 198 ft 156 kts 35°
2026-04-23 23:42 20.89531 -156.43176 36 ft 134 kts 32°
2026-04-23 23:43 20.90085 -156.42773 27 ft 40 kts 35°
2026-04-23 23:43 20.90272 -156.42618 27 ft 29 kts 25°
2026-04-23 23:43 20.90477 -156.42521 29 ft 44 kts 352°
2026-04-23 23:43 20.90550 -156.42566 28 ft 0 kts 289°
2026-04-23 23:44 20.90546 -156.42571 28 ft 2 kts 238°
2026-04-23 23:44 20.90449 -156.42650 29 ft 24 kts 215°
2026-04-23 23:44 20.90349 -156.42726 28 ft 27 kts 216°
2026-04-23 23:44 20.90277 -156.42782 28 ft 0 kts 216°
2026-04-23 23:45 20.90261 -156.42794 28 ft 10 kts 214°
2026-04-23 23:46 20.90137 -156.42883 27 ft 32 kts 215°
2026-04-23 23:46 20.89931 -156.43037 29 ft 38 kts 214°
2026-04-23 23:46 20.89770 -156.43155 30 ft 27 kts 214°
2026-04-23 23:46 20.89633 -156.43266 31 ft 11 kts 242°
2026-04-23 23:47 20.89664 -156.43366 31 ft 16 kts 301°
2026-04-23 23:47 20.89671 -156.43377 31 ft 0 kts 303°
2026-04-23 23:47 20.89674 -156.43382 31 ft 0 kts 303°